{"data":{"norad_id":60602,"intl_designator":"2024-150V","name":"STARLINK-31983","alt_names":[],"object_type":"PAYLOAD","status":"ACTIVE","operator":null,"country":"US","launch_date":"2024-08-20","launch_site_code":"AFETR","launch_vehicle":null,"mission":null,"orbit_class":"UNKNOWN","rcs_meters":null,"size_class":null,"mass_kg":null,"dimensions":null,"purposes":["comms"],"wikipedia_slug":null,"has_3d_model":false,"image_url":null,"decayed_at":null,"tle_current":{"epoch":"2026-09-21T21:21:00.266688Z","epoch_age_seconds":68506,"freshness":"FRESH","line1":"1 60602U 24150V   26264.88958642  .00001096  00000+0  43598-4 0  9994","line2":"2 60602  53.1589 111.2171 0001309  91.9872 268.1280 15.34387958118066","mean_motion":15.34387958,"eccentricity":0.0001309,"inclination_deg":53.1589,"raan_deg":111.2171,"arg_perigee_deg":91.9872,"mean_anomaly_deg":268.128,"bstar":4.3598e-5,"rev_number":11806,"period_min":93.848494606082,"perigee_km":461.84356113036,"apogee_km":463.63450247548,"semimajor_km":6840.8760318029,"source":"CELESTRAK","updated_at":"2026-09-22T09:00:49.275748Z"}}}